Time,TemperatureF,DewpointF,PressureIn,WindDirection,WindDirectionDegrees,WindSpeedMPH,WindSpeedGustMPH,Humidity,HourlyPrecipIn,Conditions,Clouds,dailyrainin,SolarRadiationWatts/m^2,SoftwareType,DateUTC
2013-01-23 00:00:00,23.2,13.5,30.10,SSE,158,4.0,6.0,66,0.00,,---,0.00,0.00,VWS V14.01,2013-01-23 06:00:00,
2013-01-23 00:05:00,23.2,13.5,30.10,South,180,4.0,6.0,66,0.00,,---,0.00,0.00,VWS V14.01,2013-01-23 06:05:00,
2013-01-23 00:10:00,23.3,13.6,30.10,South,180,5.0,7.0,66,0.00,,---,0.00,0.00,VWS V14.01,2013-01-23 06:10:00,
2013-01-23 00:15:00,23.3,13.6,30.09,South,180,5.0,7.0,66,0.00,,---,0.00,0.00,VWS V14.01,2013-01-23 06:15:00,
2013-01-23 00:20:00,23.3,13.6,30.09,South,180,5.0,6.0,66,0.00,,---,0.00,0.00,VWS V14.01,2013-01-23 06:20:00,
2013-01-23 00:25:00,23.2,13.5,30.09,South,180,5.0,7.0,66,0.00,,---,0.00,0.00,VWS V14.01,2013-01-23 06:25:00,
2013-01-23 00:30:00,22.9,13.3,30.09,South,180,6.0,7.0,66,0.00,,---,0.00,0.00,VWS V14.01,2013-01-23 06:30:00,
2013-01-23 00:35:00,22.9,13.3,30.09,SSW,202,6.0,6.0,66,0.00,,---,0.00,0.00,VWS V14.01,2013-01-23 06:35:00,
2013-01-23 00:40:00,22.9,13.6,30.09,North,0,6.0,7.0,67,0.00,,---,0.00,0.00,VWS V14.01,2013-01-23 06:40:00,
2013-01-23 00:45:00,22.5,13.2,30.09,SSW,202,6.0,7.0,67,0.00,,---,0.00,0.00,VWS V14.01,2013-01-23 06:45:00,
2013-01-23 00:50:00,22.2,13.3,30.09,WNW,292,5.0,6.0,68,0.00,,---,0.00,0.00,VWS V14.01,2013-01-23 06:50:00,
2013-01-23 00:55:00,22.2,13.3,30.09,SSW,202,3.0,4.0,68,0.00,,---,0.00,0.00,VWS V14.01,2013-01-23 06:55:00,
2013-01-23 01:00:00,22.2,13.3,30.09,SSW,202,5.0,5.0,68,0.00,,---,0.00,0.00,VWS V14.01,2013-01-23 07:00:00,
2013-01-23 01:05:00,22.2,13.9,30.09,NW,315,4.0,5.0,70,0.00,,---,0.00,0.00,VWS V14.01,2013-01-23 07:05:00,
2013-01-23 01:10:00,22.4,13.8,30.09,West,270,3.0,5.0,69,0.00,,---,0.00,0.00,VWS V14.01,2013-01-23 07:10:00,
2013-01-23 01:15:00,22.5,13.9,30.08,WSW,248,4.0,6.0,69,0.00,,---,0.00,0.00,VWS V14.01,2013-01-23 07:15:00,
2013-01-23 01:20:00,22.7,14.1,30.08,SSW,202,4.0,6.0,69,0.00,,---,0.00,0.00,VWS V14.01,2013-01-23 07:20:00,
2013-01-23 01:25:00,22.7,14.1,30.08,SW,225,5.0,6.0,69,0.00,,---,0.00,0.00,VWS V14.01,2013-01-23 07:25:00,
2013-01-23 01:30:00,22.9,13.9,30.08,NW,315,5.0,6.0,68,0.00,,---,0.00,0.00,VWS V14.01,2013-01-23 07:30:00,
2013-01-23 01:35:00,22.5,13.6,30.08,SSW,202,5.0,7.0,68,0.00,,---,0.00,0.00,VWS V14.01,2013-01-23 07:35:00,
2013-01-23 01:40:00,22.7,13.7,30.08,North,0,5.0,8.0,68,0.00,,---,0.00,0.00,VWS V14.01,2013-01-23 07:40:00,
2013-01-23 01:45:00,22.4,13.4,30.08,North,0,6.0,8.0,68,0.00,,---,0.00,0.00,VWS V14.01,2013-01-23 07:45:00,
2013-01-23 01:50:00,22.4,13.8,30.08,North,0,6.0,8.0,69,0.00,,---,0.00,0.00,VWS V14.01,2013-01-23 07:50:00,
2013-01-23 01:55:00,22.2,13.6,30.08,North,0,6.0,8.0,69,0.00,,---,0.00,0.00,VWS V14.01,2013-01-23 07:55:00,
2013-01-23 02:00:00,22.2,13.6,30.07,North,0,6.0,7.0,69,0.00,,---,0.00,0.00,VWS V14.01,2013-01-23 08:00:00,
2013-01-23 02:05:00,22.2,13.6,30.07,North,0,6.0,8.0,69,0.00,,---,0.00,0.00,VWS V14.01,2013-01-23 08:05:00,
2013-01-23 02:10:00,22.2,13.6,30.07,North,0,8.0,11.0,69,0.00,,---,0.00,0.00,VWS V14.01,2013-01-23 08:10:00,
2013-01-23 02:15:00,22.2,13.6,30.06,North,0,7.0,8.0,69,0.00,,---,0.00,0.00,VWS V14.01,2013-01-23 08:15:00,
2013-01-23 02:20:00,22.2,13.6,30.06,North,0,6.0,8.0,69,0.00,,---,0.00,0.00,VWS V14.01,2013-01-23 08:20:00,
2013-01-23 02:25:00,22.4,14.1,30.06,North,0,6.0,8.0,70,0.00,,---,0.00,0.00,VWS V14.01,2013-01-23 08:25:00,
2013-01-23 02:30:00,22.9,14.6,30.07,North,0,5.0,7.0,70,0.00,,---,0.00,0.00,VWS V14.01,2013-01-23 08:30:00,
2013-01-23 02:35:00,23.0,14.7,30.07,North,0,5.0,6.0,70,0.00,,---,0.00,0.00,VWS V14.01,2013-01-23 08:35:00,
2013-01-23 02:40:00,22.9,14.3,30.07,SW,225,5.0,7.0,69,0.00,,---,0.00,0.00,VWS V14.01,2013-01-23 08:40:00,
2013-01-23 02:45:00,22.9,14.6,30.06,SW,225,4.0,6.0,70,0.00,,---,0.00,0.00,VWS V14.01,2013-01-23 08:45:00,
2013-01-23 02:50:00,23.0,14.7,30.06,North,0,5.0,6.0,70,0.00,,---,0.00,0.00,VWS V14.01,2013-01-23 08:50:00,
2013-01-23 02:55:00,22.9,14.3,30.06,North,0,4.0,5.0,69,0.00,,---,0.00,0.00,VWS V14.01,2013-01-23 08:55:00,
2013-01-23 03:00:00,22.7,14.1,30.06,North,0,3.0,5.0,69,0.00,,---,0.00,0.00,VWS V14.01,2013-01-23 09:00:00,
2013-01-23 03:05:00,22.5,13.9,30.06,North,0,3.0,5.0,69,0.00,,---,0.00,0.00,VWS V14.01,2013-01-23 09:05:00,
2013-01-23 03:10:00,22.4,14.1,30.06,West,270,1.0,3.0,70,0.00,,---,0.00,0.00,VWS V14.01,2013-01-23 09:10:00,
2013-01-23 03:15:00,22.1,13.8,30.06,West,270,0.0,0.0,70,0.00,,---,0.00,0.00,VWS V14.01,2013-01-23 09:15:00,
2013-01-23 03:20:00,21.8,13.9,30.06,WSW,248,1.0,2.0,71,0.00,,---,0.00,0.00,VWS V14.01,2013-01-23 09:20:00,
2013-01-23 03:25:00,21.6,13.7,30.06,WSW,248,0.0,1.0,71,0.00,,---,0.00,0.00,VWS V14.01,2013-01-23 09:25:00,
2013-01-23 03:30:00,21.4,13.8,30.06,WSW,248,0.0,2.0,72,0.00,,---,0.00,0.00,VWS V14.01,2013-01-23 09:30:00,
2013-01-23 03:35:00,21.6,14.0,30.06,WSW,248,3.0,5.0,72,0.00,,---,0.00,0.00,VWS V14.01,2013-01-23 09:35:00,
2013-01-23 03:40:00,21.8,14.2,30.06,North,0,4.0,5.0,72,0.00,,---,0.00,0.00,VWS V14.01,2013-01-23 09:40:00,
2013-01-23 03:45:00,21.8,14.2,30.05,North,0,5.0,6.0,72,0.00,,---,0.00,0.00,VWS V14.01,2013-01-23 09:45:00,
2013-01-23 03:50:00,21.9,14.3,30.05,North,0,7.0,8.0,72,0.00,,---,0.00,0.00,VWS V14.01,2013-01-23 09:50:00,
2013-01-23 03:55:00,21.8,13.9,30.05,North,0,6.0,7.0,71,0.00,,---,0.00,0.00,VWS V14.01,2013-01-23 09:55:00,
2013-01-23 04:00:00,21.6,14.0,30.05,North,0,6.0,11.0,72,0.00,,---,0.00,0.00,VWS V14.01,2013-01-23 10:00:00,
2013-01-23 04:05:00,21.9,14.3,30.05,North,0,6.0,8.0,72,0.00,,---,0.00,0.00,VWS V14.01,2013-01-23 10:05:00,
2013-01-23 04:10:00,22.1,14.5,30.05,North,0,6.0,8.0,72,0.00,,---,0.00,0.00,VWS V14.01,2013-01-23 10:10:00,
2013-01-23 04:15:00,21.9,14.0,30.05,NW,315,6.0,7.0,71,0.00,,---,0.00,0.00,VWS V14.01,2013-01-23 10:15:00,
2013-01-23 04:20:00,21.6,13.7,30.05,North,0,5.0,6.0,71,0.00,,---,0.00,0.00,VWS V14.01,2013-01-23 10:20:00,
2013-01-23 04:25:00,21.1,13.5,30.05,WSW,248,4.0,5.0,72,0.00,,---,0.00,0.00,VWS V14.01,2013-01-23 10:25:00,
2013-01-23 04:30:00,21.0,13.4,30.05,WSW,248,4.0,5.0,72,0.00,,---,0.00,0.00,VWS V14.01,2013-01-23 10:30:00,
2013-01-23 04:35:00,20.8,13.5,30.05,WSW,248,6.0,7.0,73,0.00,,---,0.00,0.00,VWS V14.01,2013-01-23 10:35:00,
2013-01-23 04:40:00,21.0,13.7,30.05,North,0,6.0,8.0,73,0.00,,---,0.00,0.00,VWS V14.01,2013-01-23 10:40:00,
2013-01-23 04:45:00,21.1,13.8,30.04,North,0,6.0,7.0,73,0.00,,---,0.00,0.00,VWS V14.01,2013-01-23 10:45:00,
2013-01-23 04:50:00,21.4,14.1,30.04,North,0,6.0,8.0,73,0.00,,---,0.00,0.00,VWS V14.01,2013-01-23 10:50:00,
2013-01-23 04:55:00,21.8,14.5,30.04,North,0,6.0,10.0,73,0.00,,---,0.00,0.00,VWS V14.01,2013-01-23 10:55:00,
2013-01-23 05:00:00,21.8,14.5,30.04,North,0,6.0,8.0,73,0.00,,---,0.00,0.00,VWS V14.01,2013-01-23 11:00:00,
2013-01-23 05:05:00,21.8,14.2,30.04,North,0,7.0,10.0,72,0.00,,---,0.00,0.00,VWS V14.01,2013-01-23 11:05:00,
2013-01-23 05:10:00,21.8,14.2,30.04,North,0,6.0,8.0,72,0.00,,---,0.00,0.00,VWS V14.01,2013-01-23 11:10:00,
2013-01-23 05:15:00,21.8,14.2,30.04,North,0,6.0,8.0,72,0.00,,---,0.00,0.00,VWS V14.01,2013-01-23 11:15:00,
2013-01-23 05:20:00,21.9,14.3,30.04,North,0,7.0,10.0,72,0.00,,---,0.00,0.00,VWS V14.01,2013-01-23 11:20:00,
2013-01-23 05:25:00,21.9,14.3,30.04,North,0,7.0,10.0,72,0.00,,---,0.00,0.00,VWS V14.01,2013-01-23 11:25:00,
2013-01-23 05:30:00,22.2,14.9,30.04,North,0,7.0,10.0,73,0.00,,---,0.00,0.00,VWS V14.01,2013-01-23 11:30:00,
2013-01-23 05:35:00,22.5,14.9,30.04,North,0,7.0,10.0,72,0.00,,---,0.00,0.00,VWS V14.01,2013-01-23 11:35:00,
2013-01-23 05:40:00,22.7,15.1,30.04,North,0,7.0,8.0,72,0.00,,---,0.00,0.00,VWS V14.01,2013-01-23 11:40:00,
2013-01-23 05:45:00,22.5,14.9,30.05,North,0,6.0,8.0,72,0.00,,---,0.00,0.00,VWS V14.01,2013-01-23 11:45:00,
2013-01-23 05:50:00,22.5,14.9,30.05,North,0,6.0,8.0,72,0.00,,---,0.00,0.00,VWS V14.01,2013-01-23 11:50:00,
2013-01-23 05:55:00,22.7,15.1,30.05,North,0,5.0,7.0,72,0.00,,---,0.00,0.00,VWS V14.01,2013-01-23 11:55:00,
2013-01-23 06:00:00,22.7,15.1,30.06,SW,225,5.0,6.0,72,0.00,,---,0.00,0.00,VWS V14.01,2013-01-23 12:00:00,
2013-01-23 06:05:00,22.7,15.1,30.06,North,0,4.0,6.0,72,0.00,,---,0.00,0.00,VWS V14.01,2013-01-23 12:05:00,
2013-01-23 06:10:00,22.5,14.9,30.06,North,0,5.0,7.0,72,0.00,,---,0.00,0.00,VWS V14.01,2013-01-23 12:10:00,
2013-01-23 06:15:00,22.5,14.9,30.06,North,0,6.0,8.0,72,0.00,,---,0.00,0.00,VWS V14.01,2013-01-23 12:15:00,
2013-01-23 06:20:00,22.7,15.1,30.06,North,0,5.0,7.0,72,0.00,,---,0.00,0.00,VWS V14.01,2013-01-23 12:20:00,
2013-01-23 06:25:00,22.9,15.2,30.06,North,0,6.0,8.0,72,0.00,,---,0.00,0.00,VWS V14.01,2013-01-23 12:25:00,
2013-01-23 06:30:00,22.9,15.2,30.06,North,0,6.0,8.0,72,0.00,,---,0.00,0.00,VWS V14.01,2013-01-23 12:30:00,
2013-01-23 06:35:00,23.0,15.3,30.06,North,0,6.0,7.0,72,0.00,,---,0.00,0.00,VWS V14.01,2013-01-23 12:35:00,
2013-01-23 06:40:00,22.9,15.2,30.06,North,0,5.0,7.0,72,0.00,,---,0.00,0.00,VWS V14.01,2013-01-23 12:40:00,
2013-01-23 06:45:00,22.7,15.1,30.06,North,0,5.0,7.0,72,0.00,,---,0.00,0.00,VWS V14.01,2013-01-23 12:45:00,
2013-01-23 06:50:00,22.7,15.1,30.06,North,0,6.0,8.0,72,0.00,,---,0.00,0.00,VWS V14.01,2013-01-23 12:50:00,
2013-01-23 06:55:00,22.7,15.1,30.06,North,0,6.0,8.0,72,0.00,,---,0.00,0.00,VWS V14.01,2013-01-23 12:55:00,
2013-01-23 07:00:00,22.7,15.1,30.06,North,0,8.0,10.0,72,0.00,,---,0.00,0.00,VWS V14.01,2013-01-23 13:00:00,
2013-01-23 07:05:00,23.0,15.3,30.06,North,0,7.0,9.0,72,0.00,,---,0.00,0.00,VWS V14.01,2013-01-23 13:05:00,
2013-01-23 07:10:00,23.2,15.2,30.06,North,0,7.0,10.0,71,0.00,,---,0.00,0.00,VWS V14.01,2013-01-23 13:10:00,
2013-01-23 07:15:00,23.3,15.3,30.05,North,0,8.0,10.0,71,0.00,,---,0.00,0.00,VWS V14.01,2013-01-23 13:15:00,
2013-01-23 07:20:00,23.3,15.3,30.05,North,0,8.0,11.0,71,0.00,,---,0.00,0.00,VWS V14.01,2013-01-23 13:20:00,
2013-01-23 07:25:00,23.0,14.7,30.05,North,0,7.0,11.0,70,0.00,,---,0.00,0.00,VWS V14.01,2013-01-23 13:25:00,
2013-01-23 07:30:00,22.4,14.4,30.06,North,0,6.0,8.0,71,0.00,,---,0.00,0.00,VWS V14.01,2013-01-23 13:30:00,
2013-01-23 07:35:00,22.2,14.6,30.06,North,0,7.0,7.0,72,0.00,,---,0.00,0.00,VWS V14.01,2013-01-23 13:35:00,
2013-01-23 07:40:00,21.9,14.3,30.06,North,0,6.0,8.0,72,0.00,,---,0.00,0.00,VWS V14.01,2013-01-23 13:40:00,
2013-01-23 07:45:00,21.6,14.3,30.06,North,0,6.0,8.0,73,0.00,,---,0.00,0.00,VWS V14.01,2013-01-23 13:45:00,
2013-01-23 07:50:00,21.4,14.4,30.06,North,0,6.0,8.0,74,0.00,,---,0.00,3.00,VWS V14.01,2013-01-23 13:50:00,
2013-01-23 07:55:00,21.4,14.4,30.06,North,0,5.0,6.0,74,0.00,,---,0.00,11.00,VWS V14.01,2013-01-23 13:55:00,
2013-01-23 08:00:00,21.4,14.4,30.05,North,0,5.0,6.0,74,0.00,,---,0.00,16.00,VWS V14.01,2013-01-23 14:00:00,
2013-01-23 08:05:00,21.1,14.4,30.05,North,0,5.0,8.0,75,0.00,,---,0.00,28.00,VWS V14.01,2013-01-23 14:05:00,
2013-01-23 08:10:00,21.3,14.6,30.05,North,0,5.0,8.0,75,0.00,,---,0.00,36.00,VWS V14.01,2013-01-23 14:10:00,
2013-01-23 08:15:00,21.6,14.9,30.05,North,0,7.0,11.0,75,0.00,,---,0.00,41.00,VWS V14.01,2013-01-23 14:15:00,
2013-01-23 08:20:00,21.9,15.2,30.05,North,0,7.0,12.0,75,0.00,,---,0.00,44.00,VWS V14.01,2013-01-23 14:20:00,
2013-01-23 08:25:00,22.2,15.5,30.05,North,0,6.0,9.0,75,0.00,,---,0.00,40.00,VWS V14.01,2013-01-23 14:25:00,
2013-01-23 08:30:00,22.4,15.7,30.05,North,0,6.0,10.0,75,0.00,,---,0.00,75.00,VWS V14.01,2013-01-23 14:30:00,
2013-01-23 08:35:00,22.7,16.0,30.05,North,0,6.0,8.0,75,0.00,,---,0.00,89.00,VWS V14.01,2013-01-23 14:35:00,
2013-01-23 08:40:00,23.0,16.3,30.05,North,0,6.0,10.0,75,0.00,,---,0.00,97.00,VWS V14.01,2013-01-23 14:40:00,
2013-01-23 08:45:00,23.5,16.8,30.05,North,0,5.0,10.0,75,0.00,,---,0.00,111.00,VWS V14.01,2013-01-23 14:45:00,
2013-01-23 08:50:00,24.2,17.4,30.05,NW,315,5.0,10.0,75,0.00,,---,0.00,114.00,VWS V14.01,2013-01-23 14:50:00,
2013-01-23 08:55:00,24.5,17.7,30.05,North,0,6.0,10.0,75,0.00,,---,0.00,91.00,VWS V14.01,2013-01-23 14:55:00,
2013-01-23 09:00:00,25.4,18.6,30.05,North,0,6.0,10.0,75,0.00,,---,0.00,117.00,VWS V14.01,2013-01-23 15:00:00,
2013-01-23 09:05:00,26.1,19.3,30.05,North,0,7.0,11.0,75,0.00,,---,0.00,155.00,VWS V14.01,2013-01-23 15:05:00,
2013-01-23 09:10:00,27.2,20.0,30.05,North,0,6.0,11.0,74,0.00,,---,0.00,200.00,VWS V14.01,2013-01-23 15:10:00,
2013-01-23 09:15:00,28.4,21.2,30.05,North,0,6.0,10.0,74,0.00,,---,0.00,219.00,VWS V14.01,2013-01-23 15:15:00,
2013-01-23 09:20:00,29.7,21.8,30.05,North,0,7.0,13.0,72,0.00,,---,0.00,259.00,VWS V14.01,2013-01-23 15:20:00,
2013-01-23 09:25:00,30.6,22.3,30.05,North,0,7.0,12.0,71,0.00,,---,0.00,199.00,VWS V14.01,2013-01-23 15:25:00,
2013-01-23 09:30:00,31.5,22.5,30.05,SW,225,10.0,13.0,69,0.00,,---,0.00,183.00,VWS V14.01,2013-01-23 15:30:00,
2013-01-23 09:35:00,31.9,22.2,30.05,WSW,248,13.0,18.0,67,0.00,,---,0.00,200.00,VWS V14.01,2013-01-23 15:35:00,
2013-01-23 09:40:00,32.7,23.0,30.05,West,270,13.0,19.0,67,0.00,,---,0.00,230.00,VWS V14.01,2013-01-23 15:40:00,
2013-01-23 09:45:00,33.2,23.1,30.04,WSW,248,15.0,19.0,66,0.00,,---,0.00,205.00,VWS V14.01,2013-01-23 15:45:00,
2013-01-23 09:50:00,33.7,23.2,30.04,WSW,248,14.0,19.0,65,0.00,,---,0.00,220.00,VWS V14.01,2013-01-23 15:50:00,
2013-01-23 09:55:00,34.1,23.6,30.04,WSW,248,10.0,18.0,65,0.00,,---,0.00,229.00,VWS V14.01,2013-01-23 15:55:00,
2013-01-23 10:00:00,34.6,23.7,30.04,North,0,11.0,13.0,64,0.00,,---,0.00,218.00,VWS V14.01,2013-01-23 16:00:00,
2013-01-23 10:05:00,34.6,24.1,30.04,North,0,10.0,13.0,65,0.00,,---,0.00,242.00,VWS V14.01,2013-01-23 16:05:00,
2013-01-23 10:10:00,34.6,23.7,30.04,North,0,10.0,13.0,64,0.00,,---,0.00,282.00,VWS V14.01,2013-01-23 16:10:00,
2013-01-23 10:15:00,34.7,23.8,30.05,North,0,8.0,11.0,64,0.00,,---,0.00,257.00,VWS V14.01,2013-01-23 16:15:00,
2013-01-23 10:20:00,35.5,24.5,30.05,North,0,8.0,11.0,64,0.00,,---,0.00,214.00,VWS V14.01,2013-01-23 16:20:00,
2013-01-23 10:25:00,35.8,24.1,30.05,North,0,10.0,12.0,62,0.00,,---,0.00,232.00,VWS V14.01,2013-01-23 16:25:00,
2013-01-23 10:30:00,35.9,24.2,30.06,North,0,11.0,13.0,62,0.00,,---,0.00,204.00,VWS V14.01,2013-01-23 16:30:00,
2013-01-23 10:35:00,35.8,24.1,30.06,North,0,11.0,13.0,62,0.00,,---,0.00,212.00,VWS V14.01,2013-01-23 16:35:00,
2013-01-23 10:40:00,35.9,24.2,30.06,North,0,11.0,13.0,62,0.00,,---,0.00,253.00,VWS V14.01,2013-01-23 16:40:00,
2013-01-23 10:45:00,36.5,24.7,30.06,North,0,12.0,15.0,62,0.00,,---,0.00,227.00,VWS V14.01,2013-01-23 16:45:00,
2013-01-23 10:50:00,36.8,25.0,30.06,North,0,11.0,13.0,62,0.00,,---,0.00,236.00,VWS V14.01,2013-01-23 16:50:00,
2013-01-23 10:55:00,37.0,25.2,30.06,North,0,11.0,13.0,62,0.00,,---,0.00,305.00,VWS V14.01,2013-01-23 16:55:00,
2013-01-23 11:00:00,38.0,25.8,30.06,North,0,10.0,12.0,61,0.00,,---,0.00,358.00,VWS V14.01,2013-01-23 17:00:00,
2013-01-23 11:05:00,38.6,25.9,30.06,North,0,9.0,13.0,60,0.00,,---,0.00,440.00,VWS V14.01,2013-01-23 17:05:00,
2013-01-23 11:10:00,39.1,26.0,30.06,North,0,8.0,11.0,59,0.00,,---,0.00,388.00,VWS V14.01,2013-01-23 17:10:00,
2013-01-23 11:15:00,39.3,25.8,30.06,North,0,7.0,10.0,58,0.00,,---,0.00,314.00,VWS V14.01,2013-01-23 17:15:00,
2013-01-23 11:20:00,39.6,26.1,30.06,West,270,6.0,7.0,58,0.00,,---,0.00,338.00,VWS V14.01,2013-01-23 17:20:00,
2013-01-23 11:25:00,40.2,26.6,30.06,West,270,3.0,6.0,58,0.00,,---,0.00,343.00,VWS V14.01,2013-01-23 17:25:00,
2013-01-23 11:30:00,40.3,26.3,30.05,West,270,2.0,3.0,57,0.00,,---,0.00,341.00,VWS V14.01,2013-01-23 17:30:00,
2013-01-23 11:35:00,41.3,26.8,30.05,West,270,1.0,3.0,56,0.00,,---,0.00,293.00,VWS V14.01,2013-01-23 17:35:00,
2013-01-23 11:40:00,41.9,26.9,30.05,West,270,4.0,6.0,55,0.00,,---,0.00,309.00,VWS V14.01,2013-01-23 17:40:00,
2013-01-23 11:45:00,42.6,26.7,30.05,North,0,6.0,8.0,53,0.00,,---,0.00,350.00,VWS V14.01,2013-01-23 17:45:00,
2013-01-23 11:50:00,42.8,26.4,30.05,North,0,6.0,8.0,52,0.00,,---,0.00,281.00,VWS V14.01,2013-01-23 17:50:00,
2013-01-23 11:55:00,42.9,26.5,30.05,NW,315,5.0,8.0,52,0.00,,---,0.00,281.00,VWS V14.01,2013-01-23 17:55:00,
2013-01-23 12:00:00,43.2,25.8,30.04,NW,315,4.0,7.0,50,0.00,,---,0.00,293.00,VWS V14.01,2013-01-23 18:00:00,
2013-01-23 12:05:00,43.3,25.9,30.04,NW,315,6.0,8.0,50,0.00,,---,0.00,313.00,VWS V14.01,2013-01-23 18:05:00,
2013-01-23 12:10:00,42.9,25.1,30.04,NW,315,5.0,8.0,49,0.00,,---,0.00,255.00,VWS V14.01,2013-01-23 18:10:00,
2013-01-23 12:15:00,42.9,25.6,30.04,NW,315,6.0,8.0,50,0.00,,---,0.00,370.00,VWS V14.01,2013-01-23 18:15:00,
2013-01-23 12:20:00,43.5,26.1,30.04,NW,315,5.0,8.0,50,0.00,,---,0.00,470.00,VWS V14.01,2013-01-23 18:20:00,
2013-01-23 12:25:00,43.8,25.9,30.04,NW,315,4.0,8.0,49,0.00,,---,0.00,290.00,VWS V14.01,2013-01-23 18:25:00,
2013-01-23 12:30:00,44.1,25.7,30.03,NW,315,6.0,8.0,48,0.00,,---,0.00,218.00,VWS V14.01,2013-01-23 18:30:00,
2013-01-23 12:35:00,43.8,25.4,30.03,NW,315,6.0,9.0,48,0.00,,---,0.00,174.00,VWS V14.01,2013-01-23 18:35:00,
2013-01-23 12:40:00,43.6,25.2,30.03,NW,315,4.0,7.0,48,0.00,,---,0.00,167.00,VWS V14.01,2013-01-23 18:40:00,
2013-01-23 12:45:00,43.5,25.1,30.02,NW,315,5.0,8.0,48,0.00,,---,0.00,153.00,VWS V14.01,2013-01-23 18:45:00,
2013-01-23 12:50:00,43.3,25.4,30.02,NNW,338,5.0,8.0,49,0.00,,---,0.00,138.00,VWS V14.01,2013-01-23 18:50:00,
2013-01-23 12:55:00,43.5,25.1,30.02,North,0,5.0,7.0,48,0.00,,---,0.00,145.00,VWS V14.01,2013-01-23 18:55:00,
2013-01-23 13:00:00,43.2,24.9,30.02,North,0,5.0,10.0,48,0.00,,---,0.00,148.00,VWS V14.01,2013-01-23 19:00:00,
2013-01-23 13:05:00,43.2,24.9,30.02,NE,45,5.0,8.0,48,0.00,,---,0.00,201.00,VWS V14.01,2013-01-23 19:05:00,
2013-01-23 13:10:00,43.3,24.9,30.02,North,0,6.0,8.0,48,0.00,,---,0.00,357.00,VWS V14.01,2013-01-23 19:10:00,
2013-01-23 13:15:00,42.9,24.6,30.02,NNE,22,6.0,8.0,48,0.00,,---,0.00,338.00,VWS V14.01,2013-01-23 19:15:00,
2013-01-23 13:20:00,43.1,24.8,30.02,NE,45,6.0,10.0,48,0.00,,---,0.00,256.00,VWS V14.01,2013-01-23 19:20:00,
2013-01-23 13:25:00,42.8,24.5,30.02,North,0,7.0,10.0,48,0.00,,---,0.00,324.00,VWS V14.01,2013-01-23 19:25:00,
2013-01-23 13:30:00,42.8,24.5,30.01,East,90,6.0,10.0,48,0.00,,---,0.00,379.00,VWS V14.01,2013-01-23 19:30:00,
2013-01-23 13:35:00,43.2,24.4,30.01,SE,135,6.0,10.0,47,0.00,,---,0.00,458.00,VWS V14.01,2013-01-23 19:35:00,
2013-01-23 13:40:00,43.3,24.4,30.01,ESE,112,4.0,7.0,47,0.00,,---,0.00,463.00,VWS V14.01,2013-01-23 19:40:00,
2013-01-23 13:45:00,43.8,24.4,30.00,East,90,6.0,10.0,46,0.00,,---,0.00,170.00,VWS V14.01,2013-01-23 19:45:00,
2013-01-23 13:50:00,43.9,24.5,30.00,NNE,22,6.0,10.0,46,0.00,,---,0.00,160.00,VWS V14.01,2013-01-23 19:50:00,
2013-01-23 13:55:00,44.1,25.2,30.00,SSE,158,6.0,7.0,47,0.00,,---,0.00,160.00,VWS V14.01,2013-01-23 19:55:00,
2013-01-23 14:00:00,44.2,24.8,30.00,ENE,68,8.0,11.0,46,0.00,,---,0.00,160.00,VWS V14.01,2013-01-23 20:00:00,
2013-01-23 14:05:00,44.1,24.1,30.00,West,270,8.0,10.0,45,0.00,,---,0.00,387.00,VWS V14.01,2013-01-23 20:05:00,
2013-01-23 14:10:00,44.2,24.2,30.00,SSE,158,8.0,11.0,45,0.00,,---,0.00,387.00,VWS V14.01,2013-01-23 20:10:00,
2013-01-23 14:15:00,43.8,23.9,30.01,SW,225,8.0,11.0,45,0.00,,---,0.00,373.00,VWS V14.01,2013-01-23 20:15:00,
2013-01-23 14:20:00,43.9,24.0,30.01,NNE,22,7.0,11.0,45,0.00,,---,0.00,373.00,VWS V14.01,2013-01-23 20:20:00,
2013-01-23 14:25:00,44.1,24.1,30.01,North,0,7.0,10.0,45,0.00,,---,0.00,373.00,VWS V14.01,2013-01-23 20:25:00,
2013-01-23 14:30:00,44.1,24.1,30.00,NE,45,8.0,12.0,45,0.00,,---,0.00,363.00,VWS V14.01,2013-01-23 20:30:00,
2013-01-23 14:35:00,44.3,24.3,30.00,SSW,202,8.0,11.0,45,0.00,,---,0.00,438.00,VWS V14.01,2013-01-23 20:35:00,
2013-01-23 14:40:00,44.3,24.3,30.00,SSE,158,6.0,8.0,45,0.00,,---,0.00,465.00,VWS V14.01,2013-01-23 20:40:00,
2013-01-23 14:45:00,44.8,24.8,30.00,West,270,8.0,12.0,45,0.00,,---,0.00,465.00,VWS V14.01,2013-01-23 20:45:00,
2013-01-23 14:50:00,44.9,24.9,30.00,SE,135,5.0,7.0,45,0.00,,---,0.00,376.00,VWS V14.01,2013-01-23 20:50:00,
2013-01-23 14:55:00,45.2,24.6,30.00,SSW,202,7.0,10.0,44,0.00,,---,0.00,354.00,VWS V14.01,2013-01-23 20:55:00,
2013-01-23 15:00:00,45.4,24.2,30.02,West,277,16.0,18.0,43,0.00,,---,0.00,327.00,VWS V14.01,2013-01-23 21:00:00,
2013-01-23 15:03:00,45.2,24.6,30.00,SSW,202,7.0,10.0,44,0.00,,---,0.00,354.00,VWS V14.01,2013-01-23 21:03:00,
2013-01-23 15:05:00,45.5,24.9,30.00,ESE,113,8.0,8.0,44,0.00,,---,0.00,213.00,VWS V14.01,2013-01-23 21:05:00,
2013-01-23 15:08:00,45.7,24.5,30.00,NW,313,7.0,10.0,43,0.00,,---,0.00,282.00,VWS V14.01,2013-01-23 21:08:00,
2013-01-23 15:10:00,45.7,24.5,30.00,North,0,6.0,10.0,43,0.00,,---,0.00,282.00,VWS V14.01,2013-01-23 21:10:00,
2013-01-23 15:13:00,46.0,24.2,30.01,SSE,152,6.0,8.0,42,0.00,,---,0.00,412.00,VWS V14.01,2013-01-23 21:13:00,
2013-01-23 15:15:00,46.1,24.3,30.01,SW,236,4.0,8.0,42,0.00,,---,0.00,412.00,VWS V14.01,2013-01-23 21:15:00,
2013-01-23 15:19:00,46.4,24.0,30.01,NNW,342,7.0,10.0,41,0.00,,---,0.00,387.00,VWS V14.01,2013-01-23 21:19:00,
2013-01-23 15:20:00,46.4,24.6,30.01,SSW,202,7.0,10.0,42,0.00,,---,0.00,387.00,VWS V14.01,2013-01-23 21:20:00,
2013-01-23 15:24:00,46.2,23.8,30.01,WSW,258,10.0,11.0,41,0.00,,---,0.00,169.00,VWS V14.01,2013-01-23 21:24:00,
2013-01-23 15:25:00,46.2,23.8,30.01,West,278,8.0,11.0,41,0.00,,---,0.00,171.00,VWS V14.01,2013-01-23 21:25:00,
2013-01-23 15:29:00,46.2,24.4,30.00,NNW,342,5.0,12.0,42,0.00,,---,0.00,259.00,VWS V14.01,2013-01-23 21:29:00,
2013-01-23 15:30:00,46.2,24.4,30.00,NNW,342,5.0,12.0,42,0.00,,---,0.00,259.00,VWS V14.01,2013-01-23 21:30:00,
2013-01-23 15:34:00,46.4,24.0,30.00,WNW,302,6.0,9.0,41,0.00,,---,0.00,269.00,VWS V14.01,2013-01-23 21:34:00,
2013-01-23 15:35:00,46.4,24.0,30.00,WNW,302,6.0,9.0,41,0.00,,---,0.00,269.00,VWS V14.01,2013-01-23 21:35:00,
2013-01-23 15:39:00,46.5,24.1,30.00,ENE,61,9.0,9.0,41,0.00,,---,0.00,185.00,VWS V14.01,2013-01-23 21:39:00,
2013-01-23 15:40:00,46.5,24.1,30.00,SE,140,8.0,12.0,41,0.00,,---,0.00,185.00,VWS V14.01,2013-01-23 21:40:00,
2013-01-23 15:44:00,46.4,24.0,30.00,WSW,258,11.0,13.0,41,0.00,,---,0.00,176.00,VWS V14.01,2013-01-23 21:44:00,
2013-01-23 15:45:00,46.5,24.1,30.00,North,0,10.0,13.0,41,0.00,,---,0.00,176.00,VWS V14.01,2013-01-23 21:45:00,
2013-01-23 15:49:00,46.1,24.3,30.00,North,0,11.0,13.0,42,0.00,,---,0.00,155.00,VWS V14.01,2013-01-23 21:49:00,
2013-01-23 15:50:00,46.1,24.3,30.00,WSW,257,13.0,14.0,42,0.00,,---,0.00,155.00,VWS V14.01,2013-01-23 21:50:00,
2013-01-23 15:54:00,45.7,24.5,30.00,SW,220,11.0,13.0,43,0.00,,---,0.00,218.00,VWS V14.01,2013-01-23 21:54:00,
2013-01-23 15:55:00,45.7,24.5,30.00,NNW,330,8.0,15.0,43,0.00,,---,0.00,218.00,VWS V14.01,2013-01-23 21:55:00,
2013-01-23 15:59:00,45.4,24.2,30.02,NW,313,14.0,16.0,43,0.00,,---,0.00,327.00,VWS V14.01,2013-01-23 21:59:00,
2013-01-23 16:00:00,45.4,24.2,30.02,West,277,16.0,18.0,43,0.00,,---,0.00,327.00,VWS V14.01,2013-01-23 22:00:00,
2013-01-23 16:05:00,45.4,23.7,30.02,NNW,344,14.0,16.0,42,0.00,,---,0.00,331.00,VWS V14.01,2013-01-23 22:05:00,
2013-01-23 16:10:00,45.5,23.2,30.02,WNW,294,14.0,17.0,41,0.00,,---,0.00,234.00,VWS V14.01,2013-01-23 22:10:00,
2013-01-23 16:15:00,45.1,24.0,30.03,SSE,168,11.0,14.0,43,0.00,,---,0.00,253.00,VWS V14.01,2013-01-23 22:15:00,
2013-01-23 16:20:00,44.8,23.1,30.03,West,268,16.0,19.0,42,0.00,,---,0.00,181.00,VWS V14.01,2013-01-23 22:20:00,
2013-01-23 16:25:00,44.5,22.9,30.03,ESE,102,16.0,17.0,42,0.00,,---,0.00,157.00,VWS V14.01,2013-01-23 22:25:00,
2013-01-23 16:30:00,44.2,23.1,30.03,North,0,17.0,17.0,43,0.00,,---,0.00,165.00,VWS V14.01,2013-01-23 22:30:00,
2013-01-23 16:35:00,44.2,23.1,30.03,West,280,12.0,17.0,43,0.00,,---,0.00,128.00,VWS V14.01,2013-01-23 22:35:00,
2013-01-23 16:36:00,44.2,23.1,30.03,ESE,102,14.0,16.0,43,0.00,,---,0.00,120.00,VWS V14.01,2013-01-23 22:36:00,
2013-01-23 16:40:00,44.2,23.1,30.03,North,357,12.0,16.0,43,0.00,,---,0.00,107.00,VWS V14.01,2013-01-23 22:40:00,
2013-01-23 16:41:00,44.2,23.1,30.03,North,0,11.0,12.0,43,0.00,,---,0.00,106.00,VWS V14.01,2013-01-23 22:41:00,
2013-01-23 16:45:00,44.1,23.6,30.05,NNE,13,10.0,12.0,44,0.00,,---,0.00,86.00,VWS V14.01,2013-01-23 22:45:00,
2013-01-23 16:46:00,44.1,23.6,30.05,NE,37,9.0,13.0,44,0.00,,---,0.00,83.00,VWS V14.01,2013-01-23 22:46:00,
2013-01-23 16:50:00,43.9,23.4,30.05,NNW,342,10.0,13.0,44,0.00,,---,0.00,106.00,VWS V14.01,2013-01-23 22:50:00,
2013-01-23 16:51:00,43.9,23.4,30.05,WNW,291,9.0,12.0,44,0.00,,---,0.00,99.00,VWS V14.01,2013-01-23 22:51:00,
2013-01-23 16:55:00,43.9,23.4,30.05,NNE,17,10.0,13.0,44,0.00,,---,0.00,97.00,VWS V14.01,2013-01-23 22:55:00,
2013-01-23 16:56:00,43.9,23.4,30.05,North,0,11.0,13.0,44,0.00,,---,0.00,86.00,VWS V14.01,2013-01-23 22:56:00,
2013-01-23 17:00:00,43.8,22.8,30.05,North,11,7.0,15.0,43,0.00,,---,0.00,70.00,VWS V14.01,2013-01-23 23:00:00,
2013-01-23 17:01:00,43.6,22.6,30.05,NNW,333,12.0,17.0,43,0.00,,---,0.00,60.00,VWS V14.01,2013-01-23 23:01:00,
2013-01-23 17:05:00,43.3,22.3,30.05,ESE,114,13.0,18.0,43,0.00,,---,0.00,46.00,VWS V14.01,2013-01-23 23:05:00,
2013-01-23 17:06:00,43.2,22.2,30.05,WNW,294,7.0,16.0,43,0.00,,---,0.00,44.00,VWS V14.01,2013-01-23 23:06:00,
2013-01-23 17:10:00,42.8,21.9,30.05,NE,44,12.0,16.0,43,0.00,,---,0.00,35.00,VWS V14.01,2013-01-23 23:10:00,
2013-01-23 17:11:00,42.6,22.2,30.05,NNW,335,11.0,14.0,44,0.00,,---,0.00,33.00,VWS V14.01,2013-01-23 23:11:00,
2013-01-23 17:15:00,42.3,22.0,30.06,NNW,339,13.0,14.0,44,0.00,,---,0.00,32.00,VWS V14.01,2013-01-23 23:15:00,
2013-01-23 17:16:00,42.2,21.9,30.06,North,349,11.0,13.0,44,0.00,,---,0.00,33.00,VWS V14.01,2013-01-23 23:16:00,
2013-01-23 17:20:00,41.9,22.1,30.06,NNW,347,11.0,13.0,45,0.00,,---,0.00,33.00,VWS V14.01,2013-01-23 23:20:00,
2013-01-23 17:21:00,41.6,21.9,30.06,SSE,162,11.0,12.0,45,0.00,,---,0.00,33.00,VWS V14.01,2013-01-23 23:21:00,
2013-01-23 17:25:00,41.5,22.3,30.06,NNE,16,8.0,12.0,46,0.00,,---,0.00,19.00,VWS V14.01,2013-01-23 23:25:00,
2013-01-23 17:26:00,41.2,22.0,30.06,East,88,11.0,13.0,46,0.00,,---,0.00,11.00,VWS V14.01,2013-01-23 23:26:00,
2013-01-23 17:30:00,41.1,21.9,30.07,NNE,30,13.0,15.0,46,0.00,,---,0.00,11.00,VWS V14.01,2013-01-23 23:30:00,
2013-01-23 17:32:00,40.9,21.7,30.07,South,172,12.0,17.0,46,0.00,,---,0.00,0.00,VWS V14.01,2013-01-23 23:32:00,
2013-01-23 17:35:00,40.8,21.6,30.07,NE,44,11.0,17.0,46,0.00,,---,0.00,0.00,VWS V14.01,2013-01-23 23:35:00,
2013-01-23 17:37:00,40.5,21.4,30.07,South,185,14.0,14.0,46,0.00,,---,0.00,0.00,VWS V14.01,2013-01-23 23:37:00,
2013-01-23 17:40:00,40.3,21.2,30.07,South,179,12.0,14.0,46,0.00,,---,0.00,0.00,VWS V14.01,2013-01-23 23:40:00,
2013-01-23 17:42:00,40.3,21.2,30.07,North,357,14.0,16.0,46,0.00,,---,0.00,0.00,VWS V14.01,2013-01-23 23:42:00,
2013-01-23 17:45:00,40.3,21.2,30.09,NW,306,11.0,16.0,46,0.00,,---,0.00,0.00,VWS V14.01,2013-01-23 23:45:00,
2013-01-23 17:47:00,40.2,21.1,30.09,NE,41,12.0,17.0,46,0.00,,---,0.00,0.00,VWS V14.01,2013-01-23 23:47:00,
2013-01-23 17:50:00,40.2,21.1,30.09,ENE,76,13.0,17.0,46,0.00,,---,0.00,0.00,VWS V14.01,2013-01-23 23:50:00,
2013-01-23 17:52:00,40.1,21.0,30.09,NNE,24,7.0,13.0,46,0.00,,---,0.00,0.00,VWS V14.01,2013-01-23 23:52:00,
2013-01-23 17:55:00,40.1,21.0,30.09,North,0,11.0,16.0,46,0.00,,---,0.00,0.00,VWS V14.01,2013-01-23 23:55:00,
2013-01-23 17:57:00,40.1,21.0,30.09,ESE,119,10.0,13.0,46,0.00,,---,0.00,0.00,VWS V14.01,2013-01-23 23:57:00,
2013-01-23 18:00:00,39.9,21.3,30.10,NNE,24,10.0,14.0,47,0.00,,---,0.00,0.00,VWS V14.01,2013-01-24 00:00:00,
2013-01-23 18:02:00,39.8,21.2,30.10,North,354,12.0,14.0,47,0.00,,---,0.00,0.00,VWS V14.01,2013-01-24 00:02:00,
2013-01-23 18:05:00,39.6,21.0,30.10,South,191,10.0,17.0,47,0.00,,---,0.00,0.00,VWS V14.01,2013-01-24 00:05:00,
2013-01-23 18:07:00,39.3,21.8,30.10,NW,318,18.0,20.0,49,0.00,,---,0.00,0.00,VWS V14.01,2013-01-24 00:07:00,
2013-01-23 18:10:00,39.2,21.7,30.10,North,0,15.0,20.0,49,0.00,,---,0.00,0.00,VWS V14.01,2013-01-24 00:10:00,
2013-01-23 18:12:00,38.9,22.3,30.10,NE,34,20.0,20.0,51,0.00,,---,0.00,0.00,VWS V14.01,2013-01-24 00:12:00,
2013-01-23 18:15:00,38.8,22.2,30.11,North,353,16.0,20.0,51,0.00,,---,0.00,0.00,VWS V14.01,2013-01-24 00:15:00,
2013-01-23 18:17:00,38.5,22.0,30.11,NNW,339,17.0,22.0,51,0.00,,---,0.00,0.00,VWS V14.01,2013-01-24 00:17:00,
2013-01-23 18:20:00,38.3,22.2,30.11,North,0,13.0,22.0,52,0.00,,---,0.00,0.00,VWS V14.01,2013-01-24 00:20:00,
2013-01-23 18:22:00,38.0,22.0,30.11,SSW,195,14.0,18.0,52,0.00,,---,0.00,0.00,VWS V14.01,2013-01-24 00:22:00,
2013-01-23 18:25:00,37.8,21.8,30.11,NNW,337,15.0,18.0,52,0.00,,---,0.00,0.00,VWS V14.01,2013-01-24 00:25:00,
2013-01-23 18:27:00,37.3,21.8,30.11,NNW,328,17.0,20.0,53,0.00,,---,0.00,0.00,VWS V14.01,2013-01-24 00:27:00,
2013-01-23 18:30:00,37.2,21.7,30.11,SE,136,12.0,20.0,53,0.00,,---,0.00,0.00,VWS V14.01,2013-01-24 00:30:00,
2013-01-23 18:32:00,37.0,21.9,30.11,NW,325,17.0,21.0,54,0.00,,---,0.00,0.00,VWS V14.01,2013-01-24 00:32:00,
2013-01-23 18:35:00,36.9,21.8,30.11,North,0,16.0,21.0,54,0.00,,---,0.00,0.00,VWS V14.01,2013-01-24 00:35:00,
2013-01-23 18:38:00,36.8,21.7,30.11,North,359,14.0,20.0,54,0.00,,---,0.00,0.00,VWS V14.01,2013-01-24 00:38:00,
2013-01-23 18:40:00,36.6,21.5,30.11,North,0,19.0,20.0,54,0.00,,---,0.00,0.00,VWS V14.01,2013-01-24 00:40:00,
2013-01-23 18:43:00,36.5,21.9,30.11,WSW,254,15.0,19.0,55,0.00,,---,0.00,0.00,VWS V14.01,2013-01-24 00:43:00,
2013-01-23 18:45:00,36.3,21.7,30.12,North,357,12.0,19.0,55,0.00,,---,0.00,0.00,VWS V14.01,2013-01-24 00:45:00,
2013-01-23 18:48:00,35.9,21.3,30.12,NE,34,9.0,17.0,55,0.00,,---,0.00,0.00,VWS V14.01,2013-01-24 00:48:00,
2013-01-23 18:50:00,35.8,21.6,30.12,North,356,7.0,17.0,56,0.00,,---,0.00,0.00,VWS V14.01,2013-01-24 00:50:00,
2013-01-23 18:53:00,35.5,21.8,30.12,NNE,25,11.0,17.0,57,0.00,,---,0.00,0.00,VWS V14.01,2013-01-24 00:53:00,
2013-01-23 18:55:00,35.3,21.6,30.12,NNW,340,13.0,17.0,57,0.00,,---,0.00,0.00,VWS V14.01,2013-01-24 00:55:00,
2013-01-23 18:58:00,35.0,21.7,30.12,North,0,11.0,16.0,58,0.00,,---,0.00,0.00,VWS V14.01,2013-01-24 00:58:00,
2013-01-23 19:00:00,34.9,21.6,30.13,East,79,13.0,16.0,58,0.00,,---,0.00,0.00,VWS V14.01,2013-01-24 01:00:00,
2013-01-23 19:03:00,34.6,21.4,30.13,NNE,18,10.0,17.0,58,0.00,,---,0.00,0.00,VWS V14.01,2013-01-24 01:03:00,
2013-01-23 19:05:00,34.6,21.4,30.13,WNW,289,12.0,17.0,58,0.00,,---,0.00,0.00,VWS V14.01,2013-01-24 01:05:00,
2013-01-23 19:08:00,34.3,21.5,30.13,NW,312,14.0,17.0,59,0.00,,---,0.00,0.00,VWS V14.01,2013-01-24 01:08:00,
2013-01-23 19:10:00,34.1,21.3,30.13,North,0,18.0,18.0,59,0.00,,---,0.00,0.00,VWS V14.01,2013-01-24 01:10:00,
2013-01-23 19:13:00,34.0,21.2,30.14,North,353,18.0,18.0,59,0.00,,---,0.00,0.00,VWS V14.01,2013-01-24 01:13:00,
2013-01-23 19:15:00,33.8,21.0,30.14,NNW,344,14.0,18.0,59,0.00,,---,0.00,0.00,VWS V14.01,2013-01-24 01:15:00,
2013-01-23 19:18:00,33.7,20.9,30.14,North,0,16.0,20.0,59,0.00,,---,0.00,0.00,VWS V14.01,2013-01-24 01:18:00,
2013-01-23 19:20:00,33.5,20.7,30.14,North,0,12.0,20.0,59,0.00,,---,0.00,0.00,VWS V14.01,2013-01-24 01:20:00,
2013-01-23 19:23:00,33.4,20.6,30.14,SSW,209,13.0,19.0,59,0.00,,---,0.00,0.00,VWS V14.01,2013-01-24 01:23:00,
2013-01-23 19:25:00,33.4,20.6,30.14,North,354,16.0,20.0,59,0.00,,---,0.00,0.00,VWS V14.01,2013-01-24 01:25:00,
2013-01-23 19:28:00,33.2,20.4,30.15,WNW,299,16.0,19.0,59,0.00,,---,0.00,0.00,VWS V14.01,2013-01-24 01:28:00,
2013-01-23 19:30:00,33.2,20.4,30.15,NE,55,12.0,19.0,59,0.00,,---,0.00,0.00,VWS V14.01,2013-01-24 01:30:00,
2013-01-23 19:33:00,33.1,20.7,30.15,SW,217,14.0,19.0,60,0.00,,---,0.00,0.00,VWS V14.01,2013-01-24 01:33:00,
2013-01-23 19:35:00,33.1,20.7,30.15,WSW,239,12.0,19.0,60,0.00,,---,0.00,0.00,VWS V14.01,2013-01-24 01:35:00,
2013-01-23 19:39:00,32.8,20.5,30.15,North,0,17.0,20.0,60,0.00,,---,0.00,0.00,VWS V14.01,2013-01-24 01:39:00,
2013-01-23 19:40:00,32.7,20.4,30.15,West,271,18.0,20.0,60,0.00,,---,0.00,0.00,VWS V14.01,2013-01-24 01:40:00,
2013-01-23 19:44:00,32.5,20.2,30.16,North,0,13.0,22.0,60,0.00,,---,0.00,0.00,VWS V14.01,2013-01-24 01:44:00,
2013-01-23 19:45:00,32.5,20.2,30.16,West,267,17.0,22.0,60,0.00,,---,0.00,0.00,VWS V14.01,2013-01-24 01:45:00,
2013-01-23 19:49:00,32.4,19.7,30.16,North,0,18.0,21.0,59,0.00,,---,0.00,0.00,VWS V14.01,2013-01-24 01:49:00,
2013-01-23 19:50:00,32.4,19.7,30.16,North,0,20.0,21.0,59,0.00,,---,0.00,0.00,VWS V14.01,2013-01-24 01:50:00,
2013-01-23 19:54:00,32.1,19.8,30.16,North,0,15.0,20.0,60,0.00,,---,0.00,0.00,VWS V14.01,2013-01-24 01:54:00,
2013-01-23 19:55:00,32.1,19.8,30.16,North,0,16.0,20.0,60,0.00,,---,0.00,0.00,VWS V14.01,2013-01-24 01:55:00,
2013-01-23 19:59:00,31.8,19.5,30.17,North,359,14.0,21.0,60,0.00,,---,0.00,0.00,VWS V14.01,2013-01-24 01:59:00,
2013-01-23 20:00:00,31.8,19.5,30.17,North,359,14.0,21.0,60,0.00,,---,0.00,0.00,VWS V14.01,2013-01-24 02:00:00,
2013-01-23 20:04:00,31.6,19.3,30.17,WSW,243,14.0,14.0,60,0.00,,---,0.00,0.00,VWS V14.01,2013-01-24 02:04:00,
2013-01-23 20:05:00,31.6,19.3,30.17,North,0,13.0,20.0,60,0.00,,---,0.00,0.00,VWS V14.01,2013-01-24 02:05:00,
2013-01-23 20:09:00,31.3,19.0,30.17,SSE,168,14.0,16.0,60,0.00,,---,0.00,0.00,VWS V14.01,2013-01-24 02:09:00,
2013-01-23 20:10:00,31.3,19.0,30.17,North,356,16.0,18.0,60,0.00,,---,0.00,0.00,VWS V14.01,2013-01-24 02:10:00,
2013-01-23 20:14:00,31.2,19.0,30.16,WNW,302,16.0,19.0,60,0.00,,---,0.00,0.00,VWS V14.01,2013-01-24 02:14:00,
2013-01-23 20:15:00,31.2,19.0,30.16,North,0,16.0,19.0,60,0.00,,---,0.00,0.00,VWS V14.01,2013-01-24 02:15:00,
2013-01-23 20:19:00,31.0,18.8,30.16,North,0,19.0,19.0,60,0.00,,---,0.00,0.00,VWS V14.01,2013-01-24 02:19:00,
2013-01-23 20:20:00,31.0,18.8,30.16,SE,126,19.0,24.0,60,0.00,,---,0.00,0.00,VWS V14.01,2013-01-24 02:20:00,
2013-01-23 20:24:00,30.9,18.7,30.16,East,92,22.0,24.0,60,0.00,,---,0.00,0.00,VWS V14.01,2013-01-24 02:24:00,
2013-01-23 20:25:00,30.9,18.7,30.16,North,354,18.0,22.0,60,0.00,,---,0.00,0.00,VWS V14.01,2013-01-24 02:25:00,
2013-01-23 20:29:00,30.7,18.5,30.16,NNW,337,13.0,16.0,60,0.00,,---,0.00,0.00,VWS V14.01,2013-01-24 02:29:00,
2013-01-23 20:30:00,30.7,18.5,30.16,North,0,12.0,24.0,60,0.00,,---,0.00,0.00,VWS V14.01,2013-01-24 02:30:00,
2013-01-23 20:35:00,30.6,18.8,30.16,North,0,14.0,17.0,61,0.00,,---,0.00,0.00,VWS V14.01,2013-01-24 02:35:00,
2013-01-23 20:40:00,30.3,18.5,30.16,North,0,13.0,16.0,61,0.00,,---,0.00,0.00,VWS V14.01,2013-01-24 02:40:00,
2013-01-23 20:45:00,30.0,18.2,30.17,North,0,16.0,18.0,61,0.00,,---,0.00,0.00,VWS V14.01,2013-01-24 02:45:00,
2013-01-23 20:50:00,29.7,17.9,30.17,NNW,333,18.0,20.0,61,0.00,,---,0.00,0.00,VWS V14.01,2013-01-24 02:50:00,
2013-01-23 20:55:00,29.4,17.6,30.17,North,357,14.0,17.0,61,0.00,,---,0.00,0.00,VWS V14.01,2013-01-24 02:55:00,
2013-01-23 21:00:00,29.1,17.7,30.19,North,349,16.0,22.0,62,0.00,,---,0.00,0.00,VWS V14.01,2013-01-24 03:00:00,
2013-01-23 21:05:00,29.0,17.6,30.19,North,0,18.0,21.0,62,0.00,,---,0.00,0.00,VWS V14.01,2013-01-24 03:05:00,
2013-01-23 21:10:00,28.7,17.3,30.19,North,350,16.0,19.0,62,0.00,,---,0.00,0.00,VWS V14.01,2013-01-24 03:10:00,
2013-01-23 21:15:00,28.5,17.1,30.19,North,0,17.0,22.0,62,0.00,,---,0.00,0.00,VWS V14.01,2013-01-24 03:15:00,
2013-01-23 21:20:00,28.4,17.1,30.19,NW,316,21.0,21.0,62,0.00,,---,0.00,0.00,VWS V14.01,2013-01-24 03:20:00,
2013-01-23 21:25:00,28.2,17.2,30.19,NNW,347,20.0,21.0,63,0.00,,---,0.00,0.00,VWS V14.01,2013-01-24 03:25:00,
2013-01-23 21:26:00,28.2,17.2,30.19,North,353,15.0,22.0,63,0.00,,---,0.00,0.00,VWS V14.01,2013-01-24 03:26:00,
2013-01-23 21:30:00,27.9,17.0,30.20,WSW,254,17.0,22.0,63,0.00,,---,0.00,0.00,VWS V14.01,2013-01-24 03:30:00,
2013-01-23 21:31:00,27.9,17.0,30.20,NNW,332,17.0,18.0,63,0.00,,---,0.00,0.00,VWS V14.01,2013-01-24 03:31:00,
2013-01-23 21:35:00,27.8,17.2,30.20,NW,320,8.0,19.0,64,0.00,,---,0.00,0.00,VWS V14.01,2013-01-24 03:35:00,
2013-01-23 21:36:00,27.6,17.0,30.20,North,356,12.0,24.0,64,0.00,,---,0.00,0.00,VWS V14.01,2013-01-24 03:36:00,
2013-01-23 21:40:00,27.6,17.0,30.20,North,0,16.0,24.0,64,0.00,,---,0.00,0.00,VWS V14.01,2013-01-24 03:40:00,
2013-01-23 21:41:00,27.5,16.9,30.20,NNW,329,12.0,19.0,64,0.00,,---,0.00,0.00,VWS V14.01,2013-01-24 03:41:00,
2013-01-23 21:45:00,27.5,17.3,30.19,North,0,17.0,20.0,65,0.00,,---,0.00,0.00,VWS V14.01,2013-01-24 03:45:00,
2013-01-23 21:46:00,27.3,17.1,30.19,NW,315,16.0,17.0,65,0.00,,---,0.00,0.00,VWS V14.01,2013-01-24 03:46:00,
2013-01-23 21:50:00,27.3,17.1,30.19,NW,311,18.0,20.0,65,0.00,,---,0.00,0.00,VWS V14.01,2013-01-24 03:50:00,
2013-01-23 21:51:00,27.3,17.1,30.19,NE,44,12.0,21.0,65,0.00,,---,0.00,0.00,VWS V14.01,2013-01-24 03:51:00,
2013-01-23 21:55:00,27.2,17.0,30.19,NNW,332,16.0,21.0,65,0.00,,---,0.00,0.00,VWS V14.01,2013-01-24 03:55:00,
2013-01-23 21:56:00,27.2,17.0,30.19,North,0,14.0,20.0,65,0.00,,---,0.00,0.00,VWS V14.01,2013-01-24 03:56:00,
2013-01-23 22:00:00,27.2,17.0,30.21,NNW,330,17.0,20.0,65,0.00,,---,0.00,0.00,VWS V14.01,2013-01-24 04:00:00,
2013-01-23 22:01:00,27.2,17.0,30.21,NNW,343,13.0,20.0,65,0.00,,---,0.00,0.00,VWS V14.01,2013-01-24 04:01:00,
2013-01-23 22:05:00,27.0,17.2,30.21,North,0,18.0,20.0,66,0.00,,---,0.00,0.00,VWS V14.01,2013-01-24 04:05:00,
2013-01-23 22:06:00,27.0,17.2,30.21,North,354,15.0,18.0,66,0.00,,---,0.00,0.00,VWS V14.01,2013-01-24 04:06:00,
2013-01-23 22:10:00,26.9,17.1,30.21,NNW,342,17.0,19.0,66,0.00,,---,0.00,0.00,VWS V14.01,2013-01-24 04:10:00,
2013-01-23 22:11:00,26.9,17.1,30.21,North,0,14.0,17.0,66,0.00,,---,0.00,0.00,VWS V14.01,2013-01-24 04:11:00,
2013-01-23 22:15:00,26.9,17.1,30.20,NNW,344,13.0,19.0,66,0.00,,---,0.00,0.00,VWS V14.01,2013-01-24 04:15:00,
2013-01-23 22:17:00,26.7,16.9,30.20,NW,313,19.0,19.0,66,0.00,,---,0.00,0.00,VWS V14.01,2013-01-24 04:17:00,
2013-01-23 22:20:00,26.7,17.2,30.20,North,0,13.0,19.0,67,0.00,,---,0.00,0.00,VWS V14.01,2013-01-24 04:20:00,
2013-01-23 22:22:00,26.6,17.1,30.20,ENE,62,10.0,16.0,67,0.00,,---,0.00,0.00,VWS V14.01,2013-01-24 04:22:00,
2013-01-23 22:25:00,26.6,17.1,30.20,WSW,254,12.0,16.0,67,0.00,,---,0.00,0.00,VWS V14.01,2013-01-24 04:25:00,
2013-01-23 22:27:00,26.6,17.1,30.20,North,0,13.0,19.0,67,0.00,,---,0.00,0.00,VWS V14.01,2013-01-24 04:27:00,
2013-01-23 22:30:00,26.4,16.9,30.22,North,0,14.0,19.0,67,0.00,,---,0.00,0.00,VWS V14.01,2013-01-24 04:30:00,
2013-01-23 22:32:00,26.4,16.9,30.22,NW,309,13.0,15.0,67,0.00,,---,0.00,0.00,VWS V14.01,2013-01-24 04:32:00,
2013-01-23 22:35:00,26.3,17.2,30.22,WNW,298,6.0,17.0,68,0.00,,---,0.00,0.00,VWS V14.01,2013-01-24 04:35:00,
2013-01-23 22:37:00,26.3,17.2,30.22,North,0,13.0,17.0,68,0.00,,---,0.00,0.00,VWS V14.01,2013-01-24 04:37:00,
2013-01-23 22:40:00,26.3,17.2,30.22,North,357,9.0,17.0,68,0.00,,---,0.00,0.00,VWS V14.01,2013-01-24 04:40:00,
2013-01-23 22:42:00,26.1,17.0,30.22,North,0,14.0,15.0,68,0.00,,---,0.00,0.00,VWS V14.01,2013-01-24 04:42:00,
2013-01-23 22:45:00,26.1,17.0,30.23,NNW,328,10.0,15.0,68,0.00,,---,0.00,0.00,VWS V14.01,2013-01-24 04:45:00,
2013-01-23 22:47:00,26.0,16.9,30.23,SSE,150,12.0,17.0,68,0.00,,---,0.00,0.00,VWS V14.01,2013-01-24 04:47:00,
2013-01-23 22:50:00,26.0,16.9,30.23,West,263,8.0,17.0,68,0.00,,---,0.00,0.00,VWS V14.01,2013-01-24 04:50:00,
2013-01-23 22:52:00,26.0,17.2,30.23,North,0,11.0,14.0,69,0.00,,---,0.00,0.00,VWS V14.01,2013-01-24 04:52:00,
2013-01-23 22:55:00,26.0,17.2,30.23,North,352,12.0,14.0,69,0.00,,---,0.00,0.00,VWS V14.01,2013-01-24 04:55:00,
2013-01-23 22:57:00,26.0,17.2,30.23,NW,325,9.0,14.0,69,0.00,,---,0.00,0.00,VWS V14.01,2013-01-24 04:57:00,
2013-01-23 23:00:00,26.0,16.9,30.25,North,350,12.0,13.0,68,0.00,,---,0.00,0.00,VWS V14.01,2013-01-24 05:00:00,
2013-01-23 23:01:00,26.0,16.9,30.25,ENE,64,11.0,13.0,68,0.00,,---,0.00,0.00,VWS V14.01,2013-01-24 05:01:00,
2013-01-23 23:02:00,25.8,17.0,30.25,North,0,11.0,14.0,69,0.00,,---,0.00,0.00,VWS V14.01,2013-01-24 05:02:00,
2013-01-23 23:04:00,25.8,16.7,30.25,North,0,18.0,18.0,68,0.00,,---,0.00,0.00,VWS V14.01,2013-01-24 05:04:00,
2013-01-23 23:05:00,25.8,16.7,30.25,North,0,18.0,18.0,68,0.00,,---,0.00,0.00,VWS V14.01,2013-01-24 05:05:00,
2013-01-23 23:09:00,25.8,16.7,30.25,SSE,164,13.0,18.0,68,0.00,,---,0.00,0.00,VWS V14.01,2013-01-24 05:09:00,
2013-01-23 23:10:00,25.8,16.7,30.25,SSE,164,13.0,18.0,68,0.00,,---,0.00,0.00,VWS V14.01,2013-01-24 05:10:00,
2013-01-23 23:14:00,25.7,16.6,30.24,North,0,16.0,19.0,68,0.00,,---,0.00,0.00,VWS V14.01,2013-01-24 05:14:00,
2013-01-23 23:15:00,25.7,16.6,30.24,North,0,16.0,19.0,68,0.00,,---,0.00,0.00,VWS V14.01,2013-01-24 05:15:00,
2013-01-23 23:19:00,25.6,16.5,30.24,NE,44,12.0,17.0,68,0.00,,---,0.00,0.00,VWS V14.01,2013-01-24 05:19:00,
2013-01-23 23:20:00,25.6,16.5,30.24,NE,44,12.0,17.0,68,0.00,,---,0.00,0.00,VWS V14.01,2013-01-24 05:20:00,
2013-01-23 23:24:00,25.6,16.5,30.24,West,264,10.0,17.0,68,0.00,,---,0.00,0.00,VWS V14.01,2013-01-24 05:24:00,
2013-01-23 23:25:00,25.6,16.5,30.24,West,264,10.0,17.0,68,0.00,,---,0.00,0.00,VWS V14.01,2013-01-24 05:25:00,
2013-01-23 23:29:00,25.4,16.7,30.24,North,0,14.0,14.0,69,0.00,,---,0.00,0.00,VWS V14.01,2013-01-24 05:29:00,
2013-01-23 23:30:00,25.4,16.7,30.24,North,0,13.0,20.0,69,0.00,,---,0.00,0.00,VWS V14.01,2013-01-24 05:30:00,
2013-01-23 23:34:00,25.3,16.6,30.24,North,0,13.0,14.0,69,0.00,,---,0.00,0.00,VWS V14.01,2013-01-24 05:34:00,
2013-01-23 23:35:00,25.3,16.6,30.24,NNW,339,14.0,18.0,69,0.00,,---,0.00,0.00,VWS V14.01,2013-01-24 05:35:00,
2013-01-23 23:39:00,25.1,16.4,30.24,North,0,16.0,16.0,69,0.00,,---,0.00,0.00,VWS V14.01,2013-01-24 05:39:00,
2013-01-23 23:40:00,25.1,16.4,30.24,North,0,16.0,18.0,69,0.00,,---,0.00,0.00,VWS V14.01,2013-01-24 05:40:00,
2013-01-23 23:45:00,25.0,16.3,30.24,North,0,12.0,14.0,69,0.00,,---,0.00,0.00,VWS V14.01,2013-01-24 05:45:00,
2013-01-23 23:50:00,24.8,16.1,30.24,NW,318,11.0,14.0,69,0.00,,---,0.00,0.00,VWS V14.01,2013-01-24 05:50:00,
2013-01-23 23:55:00,24.7,16.0,30.24,North,0,11.0,12.0,69,0.00,,---,0.00,0.00,VWS V14.01,2013-01-24 05:55:00,